Regional Weather Roundup
Issued by NWS

Home | Current Version | Previous Version | Graphics & Text | Print | Product List | Glossary On
Versions: 1 2 3 4 5 6 7 8 9 10 11 12 13 14 15 16 17 18 19 20 21 22 23 24 25 26 27 28 29 30 31 32 33 34 35 36 37 38 39 40 41 42 43 44 45 46 47 48 49 50
000
ASUS43 KIND 011509
RWRIN

WEATHER ROUNDUP FOR INDIANA
NATIONAL WEATHER SERVICE INDIANAPOLIS IN
1100 AM EDT SAT AUG 01 2015

NOTE: "FAIR" INDICATES FEW OR NO CLOUDS BELOW 12,000 FEET WITH NO
SIGNIFICANT WEATHER AND/OR OBSTRUCTIONS TO VISIBILITY.

* - STATION DOES NOT REPORT WEATHER SUCH AS PRECIPITATION OR FOG.

+ - STATION NOT QUALITY CONTROLLED BY THE NATIONAL WEATHER SERVICE.
    USE DATA WITH CAUTION...ESPECIALLY DEWPOINT AND RELATIVE
    HUMIDITY OBSERVATIONS.

INZ001>003-010>013-019-020-011600-
NORTHWEST INDIANA

CITY           SKY/WX    TMP DP  RH WIND       PRES   REMARKS
GARY /AIRPORT/ SUNNY     81  52  36 W10       29.99F
KNOX *+        SUNNY     77  55  47 NW5       29.99F
LA PORTE +     SUNNY     79  57  47 NW8       30.00S
MICHIGAN CITY+ SUNNY     77  54  44 W7        29.99F
MONTICELLO +   SUNNY     76  61  59 W6        30.01S
RENSSELAER +   SUNNY     77  59  53 W6        30.01S
VALPARAISO     SUNNY     79  54  41 W6        30.00F

$$

LMZ046-743>745-011600-
SOUTHERN LAKE MICHIGAN

STATION/POSITION TIME  TEMP    WIND        PRES    WAVE
                       AIR SEA DIR/SP/G            HT
                 (UTC) (F)     (DEG/KT/KT) (MB)    (FT)
BURNS HARBOR     1400   74     270/  9/ 11 1016.3S
MICHIGAN CITY    1400   72     230/ 11/ 12   N/A
5NW MICH CITY    1500   72 73  270/  8/ 10   N/A     3

$$

INZ004-005-014>016-021>024-011600-
NORTH CENTRAL INDIANA

CITY           SKY/WX    TMP DP  RH WIND       PRES   REMARKS
GOSHEN         SUNNY     76  60  57 W10       29.99S
LOGANSPORT +   SUNNY     77  50  38 NW5       30.02S
PERU/GRISSOM   SUNNY     75  58  55 W3        30.01S
ROCHESTER +    SUNNY     79  55  44 W7        30.01F
SOUTH BEND     SUNNY     79  56  45 NW10      29.99F
WARSAW +       SUNNY     77  61  57 NW9       30.00F

$$

INZ006>009-017-018-025>027-011600-
NORTHEAST INDIANA

CITY           SKY/WX    TMP DP  RH WIND       PRES   REMARKS
ANGOLA *+      SUNNY     77  59  53 W9        29.98F
AUBURN +       SUNNY     77  52  41 W10       30.00S
FORT WAYNE     SUNNY     77  57  50 NW9       30.00F
HUNTINGTON +   SUNNY     74  60  61 W5        30.00S

$$

INZ028-029-035-036-043>045-051>053-011600-
WEST CENTRAL INDIANA

CITY           SKY/WX    TMP DP  RH WIND       PRES   REMARKS
CRAWFORDSVL +  SUNNY     74  52  47 W3          N/A
GREENCASTLE +  SUNNY     73  50  43 NW3       30.05F
LAFAYETTE      SUNNY     76  58  53 NW3       30.01F
TERRE HAUTE    SUNNY     79  57  46 N5        30.05S

$$

INZ030>032-037>040-046>048-054>057-064-065-011600-
CENTRAL INDIANA

CITY           SKY/WX    TMP DP  RH WIND       PRES   REMARKS
ANDERSON       SUNNY     75  52  43 NW7       30.04S
COLUMBUS       SUNNY     75  57  53 N7        30.03F
FISHERS *+     SUNNY     75  59  57 W6        30.03
FRANKFORT +    SUNNY     76  59  55 W3        30.04F
GREENWOOD *+   SUNNY     77  52  41 NW3       30.04S
INDIANAPOLIS   MOSUNNY   78  55  44 NW9       30.02S
-EAGLE CREEK   SUNNY     76  58  53 NW5       30.03S
KOKOMO *+      SUNNY     77  57  50 N8        30.02F
MARION +       SUNNY     73  58  57 NW5       30.03S
MT COMFORT *+  SUNNY     77  50  38 NW5       30.04S
SHELBYVILLE    SUNNY     78  60  53 N6        30.02S
ZIONSVILLE +   SUNNY     76  56  49 N3        30.04F

$$

INZ033-034-041-042-049-050-058-059-011600-
EAST CENTRAL INDIANA

CITY           SKY/WX    TMP DP  RH WIND       PRES   REMARKS
MUNCIE         SUNNY     74  59  59 W7        30.02S

$$

INZ060-061-067>069-081>083-085>088-011600-
SOUTHWEST INDIANA

CITY           SKY/WX    TMP DP  RH WIND       PRES   REMARKS
EVANSVILLE     SUNNY     83  58  42 NE8       30.05F
HUNTINGBURG *+ SUNNY     81  63  54 N8        30.04F
WASHINGTON +   SUNNY     78  55  45 NW3       30.04F

$$

INZ062-063-066-070>080-084-089>092-011600-
SOUTH CENTRAL AND SOUTHEAST INDIANA

CITY           SKY/WX    TMP DP  RH WIND       PRES   REMARKS
BLOOMINGTON    SUNNY     79  60  52 N7        30.05S
MADISON *+     SUNNY     77  59  53 NW3       30.05S
NORTH VERNON + SUNNY     77  57  50 NW7       30.04S
SEYMOUR +      SUNNY     79  61  53 NW6       30.03S

$$




USA.gov is the U.S. government's official web portal to all federal, state and local government web resources and services.